Eau Claire, WI

5:35 AM CDT on October 18, 2017 (GMT -0500)
Chippewa Valley Regional

Weather History for KEAU - December, 2012

Change the Weather History Date:

Saturday, December 15, 2012

  Actual Average Record
Temperature  
Mean Temperature 36 °F 19 °F  
Max Temperature 37 °F 27 °F 54 °F (1894)
Min Temperature 34 °F 10 °F -29 °F (1961)
Degree Days  
Heating Degree Days 29 46  
Month to date heating degree days 529 656  
Since 1 July heating degree days 2250 2402  
Cooling Degree Days 0 0  
Month to date cooling degree days 0 0  
Year to date cooling degree days 830 579  
Moisture  
Dew Point 34 °F    
Average Humidity 88    
Maximum Humidity 100    
Minimum Humidity 76    
Precipitation  
Precipitation 0.29 in 0.03 in 1.00 in (1902)
Month to date precipitation 1.39 0.55  
Year to date precipitation 23.80 30.53  
Snow  
Snow 0.00 in 0.30 in 10.00 in (1902)
Month to date snowfall 15.1 4.6  
Since 1 July snowfall 16.0 10.9  
Snow Depth 5.00 in    
Sea Level Pressure  
Sea Level Pressure 29.65 in    
Wind  
Wind Speed 7 mph (ESE)    
Max Wind Speed 17 mph    
Max Gust Speed 24 mph    
Visibility 4 miles    
Events Fog , Rain    
T = Trace of Precipitation, MM = Missing Value Source: NWS Daily Summary

Daily Weather History Graph

Daily Weather History Graph

Search for Another Location

Airport or City:

Trip Planner

Search our weather history database for the weather conditions in past years. The results will help you decide how hot, cold, wet, or windy it might be!

Date:

Astronomy

Dec. 15, 2012 Rise Set
Actual Time 7:37 AM CST 4:25 PM CST
Civil Twilight 7:03 AM CST 4:59 PM CST
Nautical Twilight 6:26 AM CST 5:36 PM CST
Astronomical Twilight 5:50 AM CST 6:12 PM CST
Moon 9:25 AM CST (12/15) 7:35 PM CST (12/15)
Length of Visible Light 9h 55m
Length of Day
8h 48m
Waxing Crescent, 8% of the Moon is Illuminated
Dec 15
Waxing Crescent
Dec 19
First Quarter
Dec 28
Full
Jan 4
Last Quarter
Jan 11
New

Hourly Weather History & Observations

Time (CST) Temp. Windchill Dew Point Humidity Pressure Visibility Wind Dir Wind Speed Gust Speed Precip Events Conditions
12:16 AM 35.6 °F 28.6 °F 30.2 °F 81% 29.87 in 8.0 mi East 9.2 mph - N/A   Overcast
12:25 AM 35.6 °F 28.6 °F 30.2 °F 81% 29.86 in 8.0 mi East 9.2 mph - N/A   Overcast
12:56 AM 36.0 °F 29.0 °F 30.0 °F 79% 29.88 in 8.0 mi East 9.2 mph - N/A   Overcast
1:29 AM 35.6 °F 28.0 °F 30.2 °F 81% 29.84 in 8.0 mi East 10.4 mph 18.4 mph N/A   Overcast
1:56 AM 36.0 °F 29.6 °F 30.9 °F 82% 29.86 in 8.0 mi ESE 8.1 mph - N/A   Overcast
2:05 AM 35.6 °F 29.2 °F 30.2 °F 81% 29.82 in 8.0 mi East 8.1 mph - N/A   Overcast
2:52 AM 37.4 °F 31.4 °F 30.2 °F 75% 29.81 in 8.0 mi ESE 8.1 mph - N/A   Overcast
2:56 AM 37.0 °F 29.8 °F 30.9 °F 79% 29.83 in 8.0 mi ESE 10.4 mph 17.3 mph N/A   Overcast
3:56 AM 37.0 °F 30.4 °F 30.9 °F 79% 29.80 in 6.0 mi ESE 9.2 mph - 0.00 in Rain Light Rain
4:56 AM 36.0 °F 29.0 °F 32.0 °F 86% 29.78 in 4.0 mi ESE 9.2 mph - 0.03 in Rain Rain
5:02 AM 35.6 °F 29.2 °F 33.8 °F 93% 29.75 in 3.0 mi East 8.1 mph - 0.01 in Rain Light Rain
5:14 AM 35.6 °F 28.6 °F 33.8 °F 93% 29.74 in 3.0 mi East 9.2 mph - 0.04 in Rain Rain
5:56 AM 35.1 °F 26.9 °F 33.1 °F 92% 29.74 in 2.5 mi East 11.5 mph - 0.10 in Rain Light Rain
6:08 AM 35.6 °F 27.5 °F 33.8 °F 93% 29.71 in 4.0 mi East 11.5 mph - 0.01 in Rain Light Rain
6:56 AM 36.0 °F 26.7 °F 33.1 °F 89% 29.71 in 5.0 mi East 15.0 mph - 0.01 in Rain Light Rain
7:56 AM 36.0 °F 27.5 °F 34.0 °F 93% 29.67 in 4.0 mi ESE 12.7 mph 21.9 mph 0.03 in Rain Light Rain
8:33 AM 37.4 °F 28.5 °F 33.8 °F 87% 29.64 in 3.0 mi ESE 15.0 mph 23.0 mph 0.03 in Rain Light Rain
8:56 AM 36.0 °F 27.1 °F 34.0 °F 93% 29.66 in 3.0 mi ESE 13.8 mph 19.6 mph 0.04 in Rain Light Rain
9:39 AM 37.4 °F 30.8 °F 35.6 °F 93% 29.63 in 3.0 mi SE 9.2 mph - 0.02 in Rain Light Rain
9:56 AM 37.0 °F 29.3 °F 35.1 °F 93% 29.65 in 3.0 mi ESE 11.5 mph - 0.04 in Rain Light Rain
10:56 AM 37.0 °F 28.5 °F 35.1 °F 93% 29.63 in 3.0 mi ESE 13.8 mph - 0.02 in Rain Light Rain
11:56 AM 37.0 °F 29.3 °F 34.0 °F 89% 29.59 in 9.0 mi SE 11.5 mph - 0.01 in   Overcast
12:56 PM 37.0 °F 28.9 °F 34.0 °F 89% 29.57 in 9.0 mi SE 12.7 mph - N/A   Overcast
1:56 PM 37.0 °F 31.0 °F 35.1 °F 93% 29.54 in 2.5 mi ESE 8.1 mph - N/A   Overcast
2:56 PM 37.0 °F 33.3 °F 36.0 °F 96% 29.54 in 2.0 mi ESE 4.6 mph - N/A   Overcast
3:07 PM 37.4 °F 33.8 °F 35.6 °F 93% 29.51 in 1.8 mi East 4.6 mph - N/A   Overcast
3:20 PM 37.4 °F 33.8 °F 35.6 °F 93% 29.51 in 2.0 mi East 4.6 mph - N/A   Overcast
3:31 PM 37.4 °F 34.9 °F 35.6 °F 93% 29.51 in 1.8 mi East 3.5 mph - N/A   Overcast
3:40 PM 37.4 °F 33.8 °F 35.6 °F 93% 29.51 in 2.0 mi East 4.6 mph - N/A   Overcast
3:56 PM 37.0 °F 34.5 °F 36.0 °F 96% 29.54 in 2.5 mi ENE 3.5 mph - N/A   Overcast
4:56 PM 36.0 °F 33.3 °F 36.0 °F 100% 29.54 in 1.8 mi NE 3.5 mph - N/A   Overcast
5:10 PM 35.6 °F - 35.6 °F 100% 29.52 in 0.8 mi Calm Calm - N/A   Overcast
5:56 PM 36.0 °F - 35.1 °F 97% 29.54 in 0.8 mi Calm Calm - N/A   Overcast
6:56 PM 35.1 °F - 35.1 °F 100% 29.54 in 0.5 mi Calm Calm - N/A Fog Fog
7:17 PM 35.6 °F - 35.6 °F 100% 29.51 in 0.2 mi Calm Calm - N/A Fog Fog
7:56 PM 35.1 °F - 35.1 °F 100% 29.53 in 0.2 mi Calm Calm - N/A Fog Fog
8:56 PM 35.1 °F - 35.1 °F 100% 29.53 in 0.2 mi Calm Calm - N/A Fog Fog
9:56 PM 34.0 °F - 34.0 °F 100% 29.53 in 0.2 mi Calm Calm - 0.00 in Fog Fog
10:56 PM 34.0 °F - 34.0 °F 100% 29.52 in 0.5 mi Calm Calm - 0.01 in Fog Fog
11:46 PM 33.8 °F - 33.8 °F 100% 29.50 in 0.2 mi Calm Calm - N/A Fog Fog
11:56 PM 34.0 °F - 33.1 °F 96% 29.52 in 0.2 mi Calm Calm - N/A Fog Fog